GW2674 Weather Reports


time (UTC)temp
F
wind
direction
speed
knots
gust
knots
rain 1hr
in
rain 24hr
in
rain mn
in
humidity
%
barometer
mb
20260507000925 59 268 10.4 19.1 0.00 0.00 0.00 76 1021.3
20260506233940 60 270 10.4 23.5 0.00 0.00 0.00 74 1021.0
20260506232435 60 270 10.4 23.5 0.00 0.00 0.00 74 1021.0
20260506230931 60 270 10.4 23.5 0.00 0.00 0.00 74 1021.0
20260506224016 59 271 13.9 23.5 0.00 0.00 0.00 77 1021.3
20260506222516 59 271 13.9 23.5 0.00 0.00 0.00 77 1021.3
20260506221013 59 271 13.9 23.5 0.00 0.00 0.00 77 1021.3
20260506215513 61 250 5.2 13.0 0.00 0.00 0.00 75 1021.3
20260506214008 61 250 5.2 13.0 0.00 0.00 0.00 75 1021.3
20260506212505 61 259 10.4 23.5 0.00 0.00 0.00 75 1021.0
20260506211000 61 259 10.4 23.5 0.00 0.00 0.00 75 1021.0
20260506205455 61 259 10.4 23.5 0.00 0.00 0.00 75 1021.0
20260506203952 61 241 6.1 15.6 0.00 0.00 0.00 75 1021.0
20260506202449 60 257 7.8 24.3 0.00 0.00 0.00 76 1021.0
20260506200946 61 256 7.0 20.9 0.00 0.00 0.00 74 1021.0
20260506195441 60 261 8.7 22.6 0.00 0.00 0.00 76 1020.7
20260506193938 59 267 10.4 24.3 0.00 0.00 0.00 77 1021.0
20260506192435 59 267 10.4 24.3 0.00 0.00 0.00 77 1021.0
20260506190931 59 267 10.4 24.3 0.00 0.00 0.00 77 1021.0
20260506182836 58 267 7.8 18.2 0.00 0.00 0.00 82 1021.7
20260506181334 58 267 7.8 18.2 0.00 0.00 0.00 82 1021.7
20260506175829 57 265 7.0 13.0 0.00 0.00 0.00 84 1021.7
20260506174326 57 276 10.4 16.5 0.00 0.00 0.00 83 1021.7
20260506172824 57 272 7.8 12.2 0.00 0.00 0.00 85 1021.7
20260506171320 57 272 7.8 12.2 0.00 0.00 0.00 85 1021.7
20260506165819 57 221 2.6 7.0 0.00 0.00 0.00 86 1021.7
20260506164315 55 242 1.7 4.3 0.00 0.00 0.00 89 1021.7
20260506162815 55 271 3.5 8.7 0.00 0.00 0.00 90 1022.0
20260506161313 53 246 2.6 6.1 0.00 0.00 0.00 94 1022.0
20260506155116 53 259 2.6 6.1 0.00 0.00 0.00 94 1022.0
20260506152548 53 259 2.6 6.1 0.00 0.00 0.00 94 1022.0
20260506151046 53 259 2.6 6.1 0.00 0.00 0.00 94 1022.0
20260506143959 53 276 3.5 8.7 0.00 0.00 0.00 94 1021.7
20260506142458 53 276 3.5 8.7 0.00 0.00 0.00 94 1021.7
20260506140957 53 276 3.5 8.7 0.00 0.00 0.00 94 1021.7
20260506135454 53 280 2.6 5.2 0.00 0.00 0.00 94 1021.3
20260506133949 53 280 2.6 5.2 0.00 0.00 0.00 94 1021.3
20260506132445 53 280 2.6 5.2 0.00 0.00 0.00 94 1021.3
20260506130941 53 29 0.0 1.7 0.00 0.00 0.00 95 1021.3
20260506125440 53 29 0.0 1.7 0.00 0.00 0.00 95 1021.3
20260506123939 53 91 0.0 2.6 0.00 0.00 0.00 95 1021.3
20260506122436 53 86 0.0 1.7 0.00 0.00 0.00 95 1021.0
20260506120934 53 347 0.0 1.7 0.00 0.00 0.00 94 1021.0
20260506115432 53 88 0.0 0.0 0.00 0.00 0.00 93 1020.7
20260506113932 53 88 0.0 0.0 0.00 0.00 0.00 93 1020.7
20260506112430 53 88 0.0 0.0 0.00 0.00 0.00 93 1020.7
20260506104045 53 88 0.0 0.0 0.00 0.00 0.00 92 1020.3
20260506102543 53 88 0.0 0.0 0.00 0.00 0.00 92 1020.3
20260506101039 53 88 0.0 0.0 0.00 0.00 0.00 91 1020.3
20260506095534 54 88 0.0 0.0 0.00 0.00 0.00 90 1020.3
20260506094031 54 63 0.9 2.6 0.00 0.00 0.00 91 1019.9
20260506092530 54 63 0.9 2.6 0.00 0.00 0.00 91 1019.9
20260506091027 53 95 0.9 2.6 0.00 0.00 0.00 93 1019.9
20260506085524 53 81 0.9 2.6 0.00 0.00 0.00 94 1019.9
20260506084019 52 288 0.0 0.0 0.00 0.00 0.00 94 1019.9
20260506082517 52 288 0.0 0.0 0.00 0.00 0.00 94 1019.9
20260506081014 53 288 0.0 0.0 0.00 0.00 0.00 94 1019.9
20260506072506 51 288 0.0 0.0 0.00 0.00 0.00 96 1019.5
20260506071005 51 288 0.0 0.0 0.00 0.00 0.00 96 1019.5
20260506062456 52 63 0.0 0.0 0.00 0.00 0.00 92 1019.2
20260506060953 52 63 0.0 0.0 0.00 0.00 0.00 92 1019.2
20260506050937 55 258 0.0 0.0 0.00 0.00 0.00 89 1019.2
20260506043948 57 131 0.9 5.2 0.00 0.00 0.00 84 1018.5
20260506042448 57 131 0.9 5.2 0.00 0.00 0.00 84 1018.5
20260506040946 57 131 0.9 5.2 0.00 0.00 0.00 84 1018.5
20260506035443 57 236 0.9 3.5 0.00 0.00 0.00 83 1018.2
20260506033939 57 243 3.5 9.6 0.00 0.00 0.00 83 1017.8
20260506032437 57 243 3.5 9.6 0.00 0.00 0.00 83 1017.8
20260506030934 57 243 3.5 9.6 0.00 0.00 0.00 83 1017.8
20260506023943 60 239 4.3 13.0 0.00 0.00 0.00 76 1017.2
20260506022441 60 239 4.3 13.0 0.00 0.00 0.00 76 1017.2
20260506020938 60 239 4.3 13.0 0.00 0.00 0.00 76 1017.2
20260506015437 60 245 5.2 11.3 0.00 0.00 0.00 76 1016.7
20260506013933 60 247 6.1 19.1 0.00 0.00 0.00 75 1016.7
20260506003943 62 253 8.7 26.1 0.00 0.00 0.00 73 1016.1
20260506002438 62 253 8.7 26.1 0.00 0.00 0.00 73 1016.1